SCP
0 0 0 0 0 0 0 0 -0 -0 -0 -1 -1 -1 -0 -0 -0 -0 -0 -0 -0 -0 -0 -0 -0 -0 -0 -0 -0 -0 -0 -0 -0 -0 -0 -0 -0 -0 0 0 0 0 0
-0 -0 0 0 0 0 0 0 0 -0 -0 -1 -1 -1 -0 -0 -0 -0 -0 -0 -0 -0 -0 -0 -0 -0 -0 -0 -0 -0 -0 -0 -0 -0 -0 -0 -0 -0 -0 0 0 0 0
-0 0 0 0 0 0 0 0 0 0 -0 -0 -1 -1 -0 -0 -0 -0 -0 -0 -0 -0 -0 -0 -0 -0 -0 -0 -0 -0 -0 -0 -0 -0 -0 0 -0 -0 -0 0 0 0 0
-0 0 0 0 0 0 0 0 0 -0 -0 -0 -0 -0 -0 -0 -0 -0 -0 -0 -0 -0 -0 -0 -0 -0 -0 -0 -0 -0 -0 -0 -0 -0 0 0 -0 -0 -0 0 0 0 0
0 0 0 0 -0 -0 -0 0 0 -0 -0 -0 -0 -0 -0 -0 -0 -0 -0 -0 -0 -0 -0 -0 -0 -0 0 0 0 0 -0 -0 -0 -0 0 0 0 0 0 0 0 0 0
0 0 0 -0 -0 -0 0 0 0 -0 -0 -0 -0 -0 -0 -0 -0 -0 0 0 0 0 0 0 0 0 0 0 0 0 0 0 0 0 0 0 0 -0 0 0 0 0 0
0 -0 -0 -0 -0 -0 0 0 -0 0 0 0 -0 0 0 0 0 0 0 0 0 0 0 0 0 0 0 0 0 0 0 0 0 0 0 0 0 0 -0 0 0 0 0
-0 0 0 0 0 0 0 0 0 0 0 0 0 0 0 0 0 0 0 0 0 0 0 0 0 0 0 0 0 0 0 0 0 0 0 0 0 -0 -0 0 0 0 0
-0 0 0 0 1 0 0 0 0 0 0 0 0 0 0 0 0 0 0 0 0 0 0 0 0 0 0 0 0 0 0 0 0 0 0 0 0 0 0 0 0 0 0
0 0 0 0 1 0 0 0 0 0 0 0 0 0 0 0 0 0 0 0 0 0 0 0 0 0 0 0 0 0 0 0 0 0 0 0 0 0 0 0 0 0 0
0 0 0 0 0 0 0 0 1 1 0 1 0 0 0 0 0 0 0 0 0 0 0 0 0 0 0 0 0 0 0 0 0 0 0 0 0 0 0 0 0 0 0
0 0 0 0 0 0 1 0 0 0 0 0 0 0 0 0 0 0 0 0 0 0 0 0 0 0 0 0 0 0 0 0 0 0 0 0 0 0 0 0 0 0 0
0 0 0 0 0 0 0 0 0 0 0 0 1 0 0 1 0 0 0 1 1 0 1 1 0 1 0 0 0 0 0 0 0 0 0 0 0 0 0 0 0 0 0
0 0 0 0 0 0 0 0 0 0 0 0 0 0 0 1 1 0 0 1 1 1 1 1 1 0 0 0 0 0 0 0 0 0 0 0 0 0 0 0 0 0 0
0 0 0 0 0 0 0 0 0 0 0 0 0 0 0 0 1 0 0 0 0 0 1 1 1 1 1 0 0 0 0 0 0 0 0 0 0 0 0 0 0 0 0
0 0 0 0 0 0 0 0 0 0 0 0 0 0 0 0 0 0 0 0 0 0 0 0 1 1 1 1 0 0 0 0 0 0 0 0 0 0 0 1 0 0 0
0 0 0 0 0 0 0 0 0 0 0 0 0 0 0 0 0 0 0 0 1 1 0 0 0 1 0 0 0 0 0 0 0 0 0 0 0 1 1 1 1 0 0
0 0 0 0 0 0 0 0 0 0 0 0 0 0 0 0 0 0 0 0 0 1 1 1 1 1 0 0 0 0 0 0 0 0 0 0 1 1 1 1 1 1 0
0 0 0 0 0 0 0 0 0 0 0 0 0 0 0 0 0 0 0 0 0 0 0 0 0 1 1 1 0 0 0 0 0 0 0 0 1 1 1 1 1 1 1
0 0 0 0 0 0 0 0 0 0 0 0 0 0 0 0 0 0 0 0 0 0 0 0 0 0 1 1 0 1 0 0 0 0 0 0 0 1 1 1 2 1 1
0 0 0 0 0 0 0 0 0 0 0 0 0 0 0 0 0 0 0 0 0 0 0 0 0 0 0 0 0 0 0 0 0 0 0 0 0 0 1 0 1 1 1
0 0 0 0 0 0 0 0 0 0 0 0 0 0 -0 -0 -0 0 0 0 0 0 0 0 0 0 0 0 0 0 0 0 0 0 0 0 0 0 0 0 0 0 0
0 0 0 0 0 0 0 0 0 0 0 0 0 0 0 0 -0 0 0 0 0 0 0 0 0 0 0 0 0 0 0 0 0 0 0 0 0 0 0 0 0 0 0
0 0 0 0 0 0 0 0 0 0 0 0 0 0 0 0 -0 0 -0 0 0 0 0 0 0 0 0 0 0 0 0 0 0 0 0 0 0 0 0 0 0 0 0
0 0 0 0 0 0 0 0 0 0 0 0 0 0 0 0 0 0 0 0 0 0 0 0 0 0 0 0 0 0 0 0 0 0 0 0 0 0 0 0 0 0 0
0 0 0 0 0 0 0 0 0 0 0 0 0 0 0 0 0 0 0 0 0 0 0 0 0 0 0 0 0 0 0 0 0 0 0 0 0 0 0 0 0 0 0
Wind_Speed_500mb
22 22 20 18 17 17 16 25 29 31 30 28 25 22 21 23 24 25 26 25 24 23 22 20 20 20 22 24 24 23 33 42 43 45 45 47 47 44 40 38 39 42 40
23 20 17 16 14 15 15 20 26 26 25 24 24 23 22 22 22 21 21 22 21 19 19 18 18 18 19 20 20 17 15 23 31 37 41 43 45 43 39 38 38 37 39
20 18 15 13 11 12 12 15 23 24 23 23 23 24 23 21 20 19 18 18 18 16 14 15 14 13 13 15 14 15 15 15 17 26 33 36 40 40 37 36 35 38 41
24 18 15 13 10 14 15 13 18 23 23 23 24 25 24 21 18 17 15 13 13 13 10 10 10 7 7 8 9 9 11 12 15 16 23 28 32 35 34 33 31 31 33
23 19 12 8 9 14 16 14 15 19 20 22 24 24 22 19 17 14 13 11 11 10 8 6 5 3 3 5 5 4 4 6 9 12 14 19 22 27 29 28 27 26 28
18 18 15 9 11 15 18 13 13 17 20 19 19 21 21 19 16 14 13 11 10 10 8 6 4 4 3 5 7 6 7 7 7 8 10 10 14 17 21 20 21 21 22
26 18 15 12 14 18 19 15 10 9 13 18 19 19 20 19 18 16 15 13 12 12 11 9 8 9 10 9 9 9 9 11 13 10 10 10 7 10 13 14 15 17 17
24 18 17 14 17 20 21 20 15 13 13 13 14 17 19 19 20 18 17 17 16 15 15 14 13 12 14 15 15 15 13 14 13 14 15 14 10 8 11 10 9 10 11
19 19 15 12 13 17 20 21 18 15 12 12 15 17 18 20 20 20 20 20 21 21 21 20 19 18 17 19 19 20 18 18 19 17 17 18 16 12 12 11 9 7 7
18 17 18 18 21 20 20 20 16 12 10 11 14 16 18 21 23 23 22 23 25 25 26 26 25 24 23 22 23 23 25 23 20 21 18 17 17 18 17 16 14 12 9
8 18 23 22 20 22 22 18 15 11 10 12 12 14 16 18 21 24 25 25 27 29 30 31 31 30 29 28 27 26 27 27 26 21 21 23 23 23 24 23 22 18 14
26 32 29 29 31 30 23 17 15 10 6 10 13 15 17 19 21 24 26 27 28 29 31 34 34 35 35 32 30 33 31 31 28 28 22 24 29 30 30 29 29 24 23
32 26 26 27 29 20 15 6 8 9 11 15 22 24 23 22 22 23 26 27 29 30 30 30 29 27 25 21 22 30 37 36 33 28 27 25 28 31 34 33 31 31 30
30 28 21 19 15 18 14 8 6 14 20 24 29 30 33 31 31 29 28 26 29 30 31 31 29 26 25 25 28 27 29 39 39 34 29 25 25 32 34 35 32 36 37
36 32 29 28 24 20 18 11 8 14 22 27 29 34 35 34 38 37 34 35 35 32 34 33 34 34 35 34 35 32 28 29 38 41 37 34 28 26 31 34 38 41 41
48 45 40 38 34 27 18 10 13 23 28 27 23 23 23 28 33 38 39 39 39 42 41 39 39 41 43 42 37 37 33 30 27 30 37 38 35 30 33 36 40 45 43
55 54 51 45 37 26 15 9 14 18 20 24 21 15 17 21 25 31 35 37 38 41 45 46 45 46 46 43 41 38 38 39 35 33 37 32 35 33 33 42 46 50 50
60 60 52 43 30 19 12 6 5 6 10 13 13 16 21 22 21 22 28 34 38 40 39 41 47 48 49 49 48 45 46 48 47 32 42 43 42 43 38 46 50 54 54
63 46 31 23 21 17 13 8 5 3 7 8 8 13 18 22 28 32 33 33 34 37 40 40 40 47 48 48 51 49 44 46 51 45 46 42 51 48 44 44 51 56 57
47 32 28 22 16 13 9 4 1 2 2 4 8 12 17 23 26 27 33 35 33 35 33 32 30 34 42 42 44 48 45 50 49 44 48 48 44 47 48 47 48 57 62
33 27 23 17 9 7 1 1 1 6 9 8 13 24 29 28 28 28 25 27 31 32 31 31 33 33 37 42 47 48 59 43 44 46 43 45 46 46 47 54 52 56 61
26 22 18 17 16 12 12 5 4 13 16 19 29 30 31 33 32 30 31 32 30 28 29 30 30 32 38 36 39 33 41 36 43 38 34 38 42 48 49 48 49 56 59
9 12 13 13 16 14 13 7 8 21 29 32 29 30 39 43 40 36 39 42 37 32 31 31 32 32 33 36 39 34 19 16 23 28 27 32 31 39 47 52 47 45 54
18 22 25 26 20 20 22 27 28 35 39 46 51 48 46 43 38 42 46 42 42 37 32 32 33 32 37 36 44 47 43 44 34 29 32 30 36 36 37 46 44 44 50
2 13 22 31 37 40 47 48 50 54 56 58 62 62 51 41 36 40 41 43 45 41 32 33 37 37 36 40 44 49 50 46 42 44 43 39 39 37 36 35 36 36 49
12 10 15 22 25 28 40 50 56 61 69 64 65 65 56 44 40 40 43 42 44 42 41 36 35 41 44 43 42 47 54 48 48 38 37 41 36 35 35 33 37 41 47
Wind_Direction_500mb
146 146 143 129 118 103 123 162 148 142 145 149 150 145 137 132 132 128 123 119 115 114 114 108 98 88 78 75 85 95 68 58 56 51 49 51 53 59 63 64 71 77 84
142 144 146 137 135 125 125 160 170 162 160 161 163 158 151 143 137 132 127 124 119 114 108 103 96 85 76 74 80 90 69 53 54 54 48 45 49 53 59 60 67 73 83
141 141 151 147 150 151 143 154 174 176 177 181 180 170 162 152 148 146 143 135 128 122 114 107 97 84 71 70 72 78 66 55 56 53 50 45 45 49 54 57 61 64 70
142 152 151 148 167 172 164 158 171 177 179 180 181 176 168 163 162 160 154 147 140 134 125 112 98 77 61 55 64 69 65 64 52 55 49 44 41 46 51 56 60 64 67
147 152 143 135 165 179 175 165 172 175 176 179 180 181 178 178 176 178 173 168 167 159 152 144 122 100 8 6 15 33 41 28 35 33 37 38 34 38 47 52 53 55 58
144 145 133 133 133 167 170 170 172 175 181 184 188 191 196 199 203 202 204 200 198 198 191 197 216 221 257 302 315 331 328 326 341 4 8 21 28 23 39 51 53 52 53
127 147 132 135 138 154 167 164 169 170 182 191 201 212 219 223 224 227 229 231 228 221 222 227 240 256 256 264 279 288 298 303 315 328 338 326 345 0 11 36 47 48 48
152 149 143 138 139 156 169 173 171 168 174 188 213 229 239 243 244 243 247 250 250 248 247 250 251 259 270 268 271 275 278 281 282 294 307 306 285 309 327 359 21 33 37
155 167 141 136 141 158 166 176 181 186 186 194 207 219 232 246 255 256 258 262 264 264 266 270 272 273 275 275 270 275 278 278 282 283 287 289 267 269 289 311 323 341 3
177 172 162 169 169 168 170 174 178 184 191 204 222 230 239 245 252 259 264 267 271 275 277 277 276 277 276 277 276 272 277 278 280 285 279 277 262 261 270 283 290 298 313
187 190 188 187 179 169 167 167 161 174 198 213 233 252 257 265 269 272 273 275 278 279 280 282 281 279 279 276 275 272 270 274 282 282 283 271 268 261 263 269 277 281 287
212 195 193 195 189 180 174 174 173 179 202 239 244 248 261 269 275 277 278 280 280 282 283 282 283 285 280 278 275 275 271 270 269 278 280 279 272 270 270 261 268 276 280
204 196 210 202 198 194 192 244 290 312 306 270 257 257 258 263 269 276 282 285 286 285 287 291 288 289 292 290 294 281 273 267 266 264 273 279 274 266 271 259 257 267 271
205 212 211 202 209 197 213 224 242 302 294 286 279 275 264 258 260 258 257 268 278 283 286 287 289 281 281 285 295 303 292 271 265 262 259 268 279 267 268 260 258 258 259
197 204 201 189 195 201 203 219 282 307 309 303 269 255 256 259 256 257 260 255 258 275 282 287 288 288 285 286 287 289 294 300 276 268 262 259 261 278 272 260 248 256 257
199 202 201 198 198 201 205 226 287 306 307 298 293 286 279 266 260 263 264 262 260 257 265 271 278 283 289 287 290 292 293 290 287 275 276 267 253 267 272 265 254 255 265
203 203 203 200 194 198 202 257 278 273 278 290 301 307 300 295 291 281 276 272 269 267 267 267 272 277 286 282 278 287 285 284 291 280 275 267 260 266 273 260 252 250 258
203 203 201 198 196 180 189 201 261 296 309 287 296 328 339 345 339 320 302 292 283 276 276 274 270 271 277 279 278 279 281 273 274 277 275 268 269 267 274 264 255 251 255
207 201 190 171 169 168 153 149 183 264 289 293 307 313 324 331 331 333 331 324 311 298 284 274 272 269 274 277 278 283 285 282 276 275 274 283 275 270 270 270 262 248 253
208 196 186 179 172 161 131 122 61 41 335 338 330 346 333 320 317 317 316 320 320 310 301 280 261 267 276 281 285 279 272 285 279 275 276 284 287 271 267 265 262 261 256
200 186 186 178 173 163 101 355 126 23 34 42 10 4 354 347 336 324 320 307 310 312 311 298 283 261 264 277 279 283 275 279 283 276 280 281 280 276 267 271 259 260 258
179 184 181 187 197 200 210 224 4 352 350 349 339 340 346 342 340 344 339 320 311 302 299 296 286 275 262 263 277 280 293 282 282 276 283 283 272 269 269 272 265 251 246
214 221 229 222 218 225 241 270 353 340 334 328 324 321 328 325 325 323 331 334 320 301 295 296 295 290 272 256 262 272 281 267 284 294 288 291 291 279 272 273 268 258 256
288 274 275 270 257 265 271 289 295 314 315 318 321 317 312 311 311 315 327 329 332 316 297 291 288 291 286 269 256 264 265 269 272 289 283 283 286 281 278 274 274 275 263
201 284 290 281 277 287 296 289 287 289 301 302 309 309 300 297 291 300 312 320 327 325 312 301 291 283 281 279 267 263 263 269 269 265 275 275 274 269 272 264 263 271 252
332 310 278 262 260 276 281 283 287 287 290 292 291 294 291 282 279 287 300 308 315 321 320 319 304 290 281 278 274 268 264 263 265 264 267 273 267 266 264 250 239 243 238
Wind_Speed_850mb
22 22 20 18 17 17 16 25 29 31 30 28 25 22 21 23 24 25 26 25 24 23 22 20 20 20 22 24 24 23 33 42 43 45 45 47 47 44 40 38 39 42 40
23 20 17 16 14 15 15 20 26 26 25 24 24 23 22 22 22 21 21 22 21 19 19 18 18 18 19 20 20 17 15 23 31 37 41 43 45 43 39 38 38 37 39
20 18 15 13 11 12 12 15 23 24 23 23 23 24 23 21 20 19 18 18 18 16 14 15 14 13 13 15 14 15 15 15 17 26 33 36 40 40 37 36 35 38 41
24 18 15 13 10 14 15 13 18 23 23 23 24 25 24 21 18 17 15 13 13 13 10 10 10 7 7 8 9 9 11 12 15 16 23 28 32 35 34 33 31 31 33
23 19 12 8 9 14 16 14 15 19 20 22 24 24 22 19 17 14 13 11 11 10 8 6 5 3 3 5 5 4 4 6 9 12 14 19 22 27 29 28 27 26 28
18 18 15 9 11 15 18 13 13 17 20 19 19 21 21 19 16 14 13 11 10 10 8 6 4 4 3 5 7 6 7 7 7 8 10 10 14 17 21 20 21 21 22
26 18 15 12 14 18 19 15 10 9 13 18 19 19 20 19 18 16 15 13 12 12 11 9 8 9 10 9 9 9 9 11 13 10 10 10 7 10 13 14 15 17 17
24 18 17 14 17 20 21 20 15 13 13 13 14 17 19 19 20 18 17 17 16 15 15 14 13 12 14 15 15 15 13 14 13 14 15 14 10 8 11 10 9 10 11
19 19 15 12 13 17 20 21 18 15 12 12 15 17 18 20 20 20 20 20 21 21 21 20 19 18 17 19 19 20 18 18 19 17 17 18 16 12 12 11 9 7 7
18 17 18 18 21 20 20 20 16 12 10 11 14 16 18 21 23 23 22 23 25 25 26 26 25 24 23 22 23 23 25 23 20 21 18 17 17 18 17 16 14 12 9
8 18 23 22 20 22 22 18 15 11 10 12 12 14 16 18 21 24 25 25 27 29 30 31 31 30 29 28 27 26 27 27 26 21 21 23 23 23 24 23 22 18 14
26 32 29 29 31 30 23 17 15 10 6 10 13 15 17 19 21 24 26 27 28 29 31 34 34 35 35 32 30 33 31 31 28 28 22 24 29 30 30 29 29 24 23
32 26 26 27 29 20 15 6 8 9 11 15 22 24 23 22 22 23 26 27 29 30 30 30 29 27 25 21 22 30 37 36 33 28 27 25 28 31 34 33 31 31 30
30 28 21 19 15 18 14 8 6 14 20 24 29 30 33 31 31 29 28 26 29 30 31 31 29 26 25 25 28 27 29 39 39 34 29 25 25 32 34 35 32 36 37
36 32 29 28 24 20 18 11 8 14 22 27 29 34 35 34 38 37 34 35 35 32 34 33 34 34 35 34 35 32 28 29 38 41 37 34 28 26 31 34 38 41 41
48 45 40 38 34 27 18 10 13 23 28 27 23 23 23 28 33 38 39 39 39 42 41 39 39 41 43 42 37 37 33 30 27 30 37 38 35 30 33 36 40 45 43
55 54 51 45 37 26 15 9 14 18 20 24 21 15 17 21 25 31 35 37 38 41 45 46 45 46 46 43 41 38 38 39 35 33 37 32 35 33 33 42 46 50 50
60 60 52 43 30 19 12 6 5 6 10 13 13 16 21 22 21 22 28 34 38 40 39 41 47 48 49 49 48 45 46 48 47 32 42 43 42 43 38 46 50 54 54
63 46 31 23 21 17 13 8 5 3 7 8 8 13 18 22 28 32 33 33 34 37 40 40 40 47 48 48 51 49 44 46 51 45 46 42 51 48 44 44 51 56 57
47 32 28 22 16 13 9 4 1 2 2 4 8 12 17 23 26 27 33 35 33 35 33 32 30 34 42 42 44 48 45 50 49 44 48 48 44 47 48 47 48 57 62
33 27 23 17 9 7 1 1 1 6 9 8 13 24 29 28 28 28 25 27 31 32 31 31 33 33 37 42 47 48 59 43 44 46 43 45 46 46 47 54 52 56 61
26 22 18 17 16 12 12 5 4 13 16 19 29 30 31 33 32 30 31 32 30 28 29 30 30 32 38 36 39 33 41 36 43 38 34 38 42 48 49 48 49 56 59
9 12 13 13 16 14 13 7 8 21 29 32 29 30 39 43 40 36 39 42 37 32 31 31 32 32 33 36 39 34 19 16 23 28 27 32 31 39 47 52 47 45 54
18 22 25 26 20 20 22 27 28 35 39 46 51 48 46 43 38 42 46 42 42 37 32 32 33 32 37 36 44 47 43 44 34 29 32 30 36 36 37 46 44 44 50
2 13 22 31 37 40 47 48 50 54 56 58 62 62 51 41 36 40 41 43 45 41 32 33 37 37 36 40 44 49 50 46 42 44 43 39 39 37 36 35 36 36 49
12 10 15 22 25 28 40 50 56 61 69 64 65 65 56 44 40 40 43 42 44 42 41 36 35 41 44 43 42 47 54 48 48 38 37 41 36 35 35 33 37 41 47
Wind_Direction_850mb
146 146 143 129 118 103 123 162 148 142 145 149 150 145 137 132 132 128 123 119 115 114 114 108 98 88 78 75 85 95 68 58 56 51 49 51 53 59 63 64 71 77 84
142 144 146 137 135 125 125 160 170 162 160 161 163 158 151 143 137 132 127 124 119 114 108 103 96 85 76 74 80 90 69 53 54 54 48 45 49 53 59 60 67 73 83
141 141 151 147 150 151 143 154 174 176 177 181 180 170 162 152 148 146 143 135 128 122 114 107 97 84 71 70 72 78 66 55 56 53 50 45 45 49 54 57 61 64 70
142 152 151 148 167 172 164 158 171 177 179 180 181 176 168 163 162 160 154 147 140 134 125 112 98 77 61 55 64 69 65 64 52 55 49 44 41 46 51 56 60 64 67
147 152 143 135 165 179 175 165 172 175 176 179 180 181 178 178 176 178 173 168 167 159 152 144 122 100 8 6 15 33 41 28 35 33 37 38 34 38 47 52 53 55 58
144 145 133 133 133 167 170 170 172 175 181 184 188 191 196 199 203 202 204 200 198 198 191 197 216 221 257 302 315 331 328 326 341 4 8 21 28 23 39 51 53 52 53
127 147 132 135 138 154 167 164 169 170 182 191 201 212 219 223 224 227 229 231 228 221 222 227 240 256 256 264 279 288 298 303 315 328 338 326 345 0 11 36 47 48 48
152 149 143 138 139 156 169 173 171 168 174 188 213 229 239 243 244 243 247 250 250 248 247 250 251 259 270 268 271 275 278 281 282 294 307 306 285 309 327 359 21 33 37
155 167 141 136 141 158 166 176 181 186 186 194 207 219 232 246 255 256 258 262 264 264 266 270 272 273 275 275 270 275 278 278 282 283 287 289 267 269 289 311 323 341 3
177 172 162 169 169 168 170 174 178 184 191 204 222 230 239 245 252 259 264 267 271 275 277 277 276 277 276 277 276 272 277 278 280 285 279 277 262 261 270 283 290 298 313
187 190 188 187 179 169 167 167 161 174 198 213 233 252 257 265 269 272 273 275 278 279 280 282 281 279 279 276 275 272 270 274 282 282 283 271 268 261 263 269 277 281 287
212 195 193 195 189 180 174 174 173 179 202 239 244 248 261 269 275 277 278 280 280 282 283 282 283 285 280 278 275 275 271 270 269 278 280 279 272 270 270 261 268 276 280
204 196 210 202 198 194 192 244 290 312 306 270 257 257 258 263 269 276 282 285 286 285 287 291 288 289 292 290 294 281 273 267 266 264 273 279 274 266 271 259 257 267 271
205 212 211 202 209 197 213 224 242 302 294 286 279 275 264 258 260 258 257 268 278 283 286 287 289 281 281 285 295 303 292 271 265 262 259 268 279 267 268 260 258 258 259
197 204 201 189 195 201 203 219 282 307 309 303 269 255 256 259 256 257 260 255 258 275 282 287 288 288 285 286 287 289 294 300 276 268 262 259 261 278 272 260 248 256 257
199 202 201 198 198 201 205 226 287 306 307 298 293 286 279 266 260 263 264 262 260 257 265 271 278 283 289 287 290 292 293 290 287 275 276 267 253 267 272 265 254 255 265
203 203 203 200 194 198 202 257 278 273 278 290 301 307 300 295 291 281 276 272 269 267 267 267 272 277 286 282 278 287 285 284 291 280 275 267 260 266 273 260 252 250 258
203 203 201 198 196 180 189 201 261 296 309 287 296 328 339 345 339 320 302 292 283 276 276 274 270 271 277 279 278 279 281 273 274 277 275 268 269 267 274 264 255 251 255
207 201 190 171 169 168 153 149 183 264 289 293 307 313 324 331 331 333 331 324 311 298 284 274 272 269 274 277 278 283 285 282 276 275 274 283 275 270 270 270 262 248 253
208 196 186 179 172 161 131 122 61 41 335 338 330 346 333 320 317 317 316 320 320 310 301 280 261 267 276 281 285 279 272 285 279 275 276 284 287 271 267 265 262 261 256
200 186 186 178 173 163 101 355 126 23 34 42 10 4 354 347 336 324 320 307 310 312 311 298 283 261 264 277 279 283 275 279 283 276 280 281 280 276 267 271 259 260 258
179 184 181 187 197 200 210 224 4 352 350 349 339 340 346 342 340 344 339 320 311 302 299 296 286 275 262 263 277 280 293 282 282 276 283 283 272 269 269 272 265 251 246
214 221 229 222 218 225 241 270 353 340 334 328 324 321 328 325 325 323 331 334 320 301 295 296 295 290 272 256 262 272 281 267 284 294 288 291 291 279 272 273 268 258 256
288 274 275 270 257 265 271 289 295 314 315 318 321 317 312 311 311 315 327 329 332 316 297 291 288 291 286 269 256 264 265 269 272 289 283 283 286 281 278 274 274 275 263
201 284 290 281 277 287 296 289 287 289 301 302 309 309 300 297 291 300 312 320 327 325 312 301 291 283 281 279 267 263 263 269 269 265 275 275 274 269 272 264 263 271 252
332 310 278 262 260 276 281 283 287 287 290 292 291 294 291 282 279 287 300 308 315 321 320 319 304 290 281 278 274 268 264 263 265 264 267 273 267 266 264 250 239 243 238